{"data":{"norad_id":62998,"epoch":"2026-09-21T08:00:03.000384Z","epoch_age_seconds":93132,"freshness":"FRESH","line1":"1 62998U 25031T   26264.33336806 -.00025541  00000+0 -92133-3 0  9996","line2":"2 62998  43.0025 118.6776 0001759 266.2986  95.2492 15.27596225  5883","mean_motion":15.27596225,"eccentricity":0.0001759,"inclination_deg":43.0025,"raan_deg":118.6776,"arg_perigee_deg":266.2986,"mean_anomaly_deg":95.2492,"bstar":-0.00092133,"rev_number":588,"period_min":94.265747481799,"perigee_km":481.79363889422,"apogee_km":484.20738707129,"semimajor_km":6861.1375129828,"source":"CELESTRAK","updated_at":"2026-09-22T09:00:49.720022Z"}}